[[{"header":{"parameterUnit":"m.s-1","parameterCategory":1,"la1":30.2991,"la2":30.254,"lo1":-89.0895,"lo2":-89.0444,"dy":0.0017,"dx":0.0017,"nx":28,"ny":28,"refTime":"2025-01-24T09:00:00:Z","depth":0,"parameterNumber":2,"parameterNumberName":"U-component_of_WINDS"},"data":[0,0,0,0,0,0,0,0,0,0,0,0,0,0,0,0,0,0,0,0,0,0,0,0,0,0,0,0,0,0,0,0,0,0,0,0,0,0,0,0,0,0,0,0,0,0,0,0,0,0,0,0,0,0,0,0,0,0,0.017,0.017,0,0.0182,0.0182,0.0182,0.0204,0.0204,0.0204,0.0205,0.0216,0.0216,0.0216,0,0,0,0,0,0,0,0,0,0,0,0,0,0.0168,0.0168,0.017,0.017,0.017,0.0182,0.0182,0.0182,0.0204,0.0204,0.0205,0.0205,0.0216,0.0216,0.0216,0,0,0,0,0,0,0,0,0,0,0,0,0,0.0173,0.0168,0.017,0.0183,0.0184,0.0182,0.0182,0.0182,0.0203,0.0204,0.0205,0.0205,0.0216,0.0216,0.0216,0.0203,0,0,0.0216,0.0216,0,0,0,0,0,0,0,0,0.0173,0.0173,0.0181,0.0182,0.0183,0.0192,0.0185,0.0189,0.0203,0.0196,0.0205,0.0206,0.0208,0.0208,0.0209,0.0203,0.0204,0.0216,0.0216,0.0216,0.0216,0,0,0,0,0,0,0,0.0172,0.0173,0.0175,0.0181,0.0182,0.0188,0.0189,0.0186,0.0198,0.0197,0.0198,0.0199,0.0208,0.0209,0.021,0.0204,0.0216,0.0216,0.0216,0.0216,0.0191,0.019,0,0,0,0,0,0,0.017,0.0172,0.0174,0.0175,0.0179,0.0188,0.0189,0.0188,0.0198,0.02,0.0199,0.02,0.0209,0.021,0.021,0.0196,0.0216,0.0215,0.0215,0.0191,0.019,0.019,0,0,0,0,0,0,0.017,0.017,0.0174,0.0174,0.0175,0.0187,0.0186,0.0188,0.0189,0.02,0.0202,0.0197,0.021,0.021,0.0205,0.0197,0.0215,0.0215,0.0192,0.0191,0.019,0.0167,0,0,0,0,0,0,0.017,0.017,0.0164,0.0174,0.0175,0.0168,0.0185,0.0188,0.0189,0.0191,0.0199,0.0201,0.021,0.0205,0.0205,0.0197,0.0215,0.0193,0.0191,0.019,0.0169,0.0166,0.0163,0,0,0,0,0,0.017,0.0157,0.0164,0.0164,0.0168,0.0167,0.0168,0.0179,0.0188,0.0183,0.0191,0.0201,0.0198,0.0204,0.0204,0.0196,0.0193,0.0192,0.019,0.017,0.0167,0.0163,0,0,0,0,0,0,0.0145,0.0158,0.0166,0.0156,0.0161,0.0171,0.0165,0.0174,0.0176,0.0178,0.0192,0.0194,0.0187,0.0191,0.0198,0.0185,0.0197,0.0196,0.0182,0.0179,0.0176,0.0174,0.0215,0,0,0,0,0,0.0139,0.0137,0.0148,0.0138,0.014,0.0152,0.0152,0.0161,0.0166,0.0168,0.0175,0.0179,0.018,0.018,0.0181,0.0171,0.0173,0.0165,0.0162,0.016,0.0158,0.0155,0.0152,0.0185,0.0185,0.0185,0,0,0.0125,0.0132,0.0129,0.0134,0.0138,0.0136,0.0153,0.015,0.0149,0.0167,0.0163,0.0169,0.0175,0.0168,0.0165,0.0171,0.015,0.0158,0.0156,0.0156,0.0153,0.015,0.0147,0.0185,0.0185,0.0185,0,0,0.0098,0.0103,0.0096,0.0101,0.0108,0.0117,0.0115,0.0125,0.013,0.0126,0.014,0.014,0.0139,0.0144,0.0146,0.0126,0.0136,0.0126,0.011,0.0107,0.0104,0.0102,0.0095,0.0093,0.0124,0.0124,0.0124,0,0.008,0.0078,0.0091,0.0088,0.009,0.0108,0.0101,0.0105,0.0112,0.0113,0.0121,0.0123,0.0128,0.0123,0.0118,0.012,0.0119,0.0124,0.0104,0.0102,0.01,0.0093,0.0091,0.0123,0.0123,0.0123,0.0123,0,0.0055,0.0054,0.0047,0.0054,0.0056,0.0051,0.0065,0.0065,0.0074,0.0082,0.008,0.0087,0.0091,0.0091,0.0099,0.0088,0.0091,0.0101,0.0113,0.0095,0.0089,0.0087,0.0121,0.0122,0.0122,0.0122,0,0,0.001,0.0028,0.0025,0.003,0.004,0.004,0.0037,0.0041,0.0041,0.0047,0.0045,0.0046,0.0056,0.0059,0.0069,0.0066,0.005,0.0076,0.0077,0.0071,0.0039,0.0031,0.0028,0.0058,0.0057,0.0057,0.0039,0,-0.0014,-0.0019,-0.0005,-0.0013,-0.0014,0.0005,0.0003,0.0009,0.0018,0.0019,0.0029,0.003,0.0043,0.0045,0.0043,0.0052,0.0044,0.0054,0.0057,0.0056,0.0053,0.0025,0.0016,-0.0002,0.0037,0.0036,0.0036,0,-0.0044,-0.0039,-0.0047,-0.0033,-0.0033,-0.0036,-0.0029,-0.0028,-0.0019,-0.0012,-0.0008,0.0004,0.0004,0.0017,0.0017,0.0023,0.0026,0.0031,0.0031,0.003,0.0044,0.0024,-0.0007,-0.001,0.0033,0.0033,0.0033,0,-0.0075,-0.0071,-0.0074,-0.0071,-0.0056,-0.0057,-0.0051,-0.0041,-0.0038,-0.0032,-0.003,-0.0024,-0.0021,-0.0017,-0.0003,0.0006,-0.0004,0.001,0.0002,0.0001,-0.0003,-0.0003,-0.0034,0.0,0.0,0.0,0.0,0,-0.0105,-0.011,-0.0088,-0.0091,-0.0095,-0.0078,-0.0083,-0.0075,-0.0066,-0.0065,-0.0048,-0.0048,-0.0029,-0.0027,-0.0016,-0.0017,-0.0015,-0.001,-0.0007,-0.0012,-0.0013,-0.0011,-0.001,-0.0,-0.0,-0.0,-0.0,0,-0.0142,-0.0127,-0.013,-0.0114,-0.011,-0.0114,-0.01,-0.0101,-0.009,-0.0089,-0.0088,-0.0071,-0.0067,-0.0052,-0.0044,-0.0036,-0.0041,-0.0035,-0.0044,-0.0043,-0.0051,-0.0051,-0.0084,-0.0087,-0.005,-0.0051,-0.0051,0,-0.0162,-0.0166,-0.015,-0.0148,-0.0142,-0.0139,-0.0136,-0.0118,-0.0115,-0.0103,-0.0105,-0.0099,-0.0094,-0.0087,-0.0074,-0.0067,-0.0061,-0.0073,-0.006,-0.0064,-0.0061,-0.0061,-0.0061,-0.0076,-0.0077,-0.0077,-0.0078,0,-0.02,-0.0192,-0.0188,-0.018,-0.0176,-0.017,-0.0162,-0.0162,-0.0141,-0.0139,-0.0134,-0.0129,-0.012,-0.0114,-0.0104,-0.0096,-0.0083,-0.0081,-0.0083,-0.0088,-0.0093,-0.009,-0.0052,-0.0081,-0.0081,-0.008,-0.008,-0.008,-0.023,-0.0231,-0.0219,-0.0214,-0.0206,-0.0199,-0.0198,-0.0186,-0.0182,-0.0173,-0.0162,-0.0158,-0.0145,-0.0131,-0.0124,-0.0119,-0.0113,-0.0115,-0.0116,-0.0117,-0.0119,-0.0093,-0.0118,-0.0118,-0.0117,-0.0117,-0.0117,0,-0.0266,-0.0257,-0.0252,-0.0241,-0.0237,-0.0224,-0.0214,-0.0211,-0.0208,-0.0197,-0.0191,-0.0184,-0.0177,-0.0162,-0.0153,-0.0152,-0.0146,-0.0151,-0.0151,-0.0149,-0.0126,-0.0125,-0.0156,-0.0156,-0.0156,-0.0156,-0.0156,-0.0156,-0.0285,-0.0287,-0.0276,-0.0273,-0.0263,-0.0259,-0.0254,-0.0246,-0.0237,-0.023,-0.0224,-0.0214,-0.0201,-0.019,-0.0183,-0.0178,-0.0176,-0.0183,-0.0176,-0.0155,-0.0151,-0.0148,-0.0147,-0.0182,-0.0182,-0.02,-0.02,-0.02]},{"header":{"parameterUnit":"m.s-1","parameterCategory":1,"la1":30.2991,"la2":30.254,"lo1":-89.0895,"lo2":-89.0444,"dy":0.0017,"dx":0.0017,"nx":28,"ny":28,"refTime":"2025-01-24T09:00:00:Z","depth":0,"parameterNumber":3,"parameterNumberName":"V-component_of_WINDS"},"data":[0,0,0,0,0,0,0,0,0,0,0,0,0,0,0,0,0,0,0,0,0,0,0,0,0,0,0,0,0,0,0,0,0,0,0,0,0,0,0,0,0,0,0,0,0,0,0,0,0,0,0,0,0,0,0,0,0,0,-4.1934,-4.1936,0,-4.2122,-4.2124,-4.2126,-4.2086,-4.2083,-4.2079,-4.2076,-4.2266,-4.2274,-4.2283,0,0,0,0,0,0,0,0,0,0,0,0,0,-4.1538,-4.1545,-4.1933,-4.1936,-4.1938,-4.2121,-4.2124,-4.2126,-4.2087,-4.2083,-4.2078,-4.2074,-4.2264,-4.2273,-4.2283,0,0,0,0,0,0,0,0,0,0,0,0,0,-4.1716,-4.1548,-4.1933,-4.194,-4.1943,-4.2121,-4.2124,-4.2127,-4.2088,-4.2082,-4.2077,-4.2072,-4.226,-4.2272,-4.2285,-4.2466,0,0,-4.2323,-4.2328,0,0,0,0,0,0,0,0,-4.1706,-4.173,-4.1937,-4.194,-4.1943,-4.2075,-4.2054,-4.2241,-4.2089,-4.2033,-4.2076,-4.207,-4.2207,-4.2223,-4.227,-4.2475,-4.2483,-4.2324,-4.2331,-4.2337,-4.234,0,0,0,0,0,0,0,-4.1694,-4.1722,-4.2008,-4.194,-4.1944,-4.1934,-4.1953,-4.2089,-4.2147,-4.2037,-4.2035,-4.2058,-4.2207,-4.2258,-4.2274,-4.2486,-4.2323,-4.2335,-4.2342,-4.2347,-4.2848,-4.2854,0,0,0,0,0,0,-4.1679,-4.1712,-4.2002,-4.2013,-4.1809,-4.1945,-4.1967,-4.2038,-4.2145,-4.2156,-4.2062,-4.2055,-4.2239,-4.226,-4.2281,-4.25,-4.2337,-4.2348,-4.2355,-4.2842,-4.2849,-4.2856,0,0,0,0,0,0,-4.167,-4.1705,-4.1994,-4.1862,-4.1898,-4.1957,-4.2038,-4.2045,-4.2095,-4.2164,-4.2173,-4.2103,-4.2236,-4.2263,-4.242,-4.2506,-4.2354,-4.2365,-4.2835,-4.2844,-4.2852,-4.2939,0,0,0,0,0,0,-4.1659,-4.1702,-4.1772,-4.1864,-4.1906,-4.2132,-4.2043,-4.2052,-4.2117,-4.211,-4.2205,-4.2216,-4.2234,-4.2402,-4.2433,-4.252,-4.2375,-4.2828,-4.2839,-4.285,-4.2929,-4.295,-4.2968,0,0,0,0,0,-4.1645,-4.1789,-4.1776,-4.1811,-4.1995,-4.2137,-4.216,-4.2179,-4.2124,-4.2195,-4.2239,-4.2213,-4.2491,-4.2418,-4.2453,-4.2545,-4.2823,-4.2836,-4.2849,-4.292,-4.2946,-4.2967,0,0,0,0,0,0,-4.1705,-4.1801,-4.1788,-4.1966,-4.2044,-4.213,-4.2219,-4.2205,-4.23,-4.2289,-4.2307,-4.2329,-4.2489,-4.2533,-4.2449,-4.2726,-4.2649,-4.267,-4.2692,-4.2716,-4.2735,-4.2721,-4.2385,0,0,0,0,0,-4.1739,-4.1847,-4.1925,-4.2074,-4.2114,-4.216,-4.2223,-4.223,-4.2311,-4.2344,-4.2399,-4.2478,-4.2583,-4.2652,-4.2753,-4.2935,-4.2955,-4.3015,-4.3035,-4.305,-4.3068,-4.3167,-4.3195,-4.2899,-4.2899,-4.2898,0,0,-4.181,-4.1876,-4.1943,-4.2088,-4.2149,-4.226,-4.2188,-4.2308,-4.2391,-4.2362,-4.2514,-4.2557,-4.2646,-4.2817,-4.2894,-4.2858,-4.3154,-4.3067,-4.3079,-4.3088,-4.3183,-4.3211,-4.3236,-4.2908,-4.2906,-4.2905,0,0,-4.1996,-4.2057,-4.2189,-4.2251,-4.2345,-4.2374,-4.2406,-4.2495,-4.2523,-4.2676,-4.2656,-4.2753,-4.2934,-4.2999,-4.3055,-4.3265,-4.3245,-4.3297,-4.3398,-4.3495,-4.3518,-4.3539,-4.3614,-4.364,-4.3314,-4.3315,-4.3315,0,-4.2073,-4.224,-4.2257,-4.238,-4.2444,-4.2423,-4.2556,-4.2616,-4.2737,-4.2781,-4.2739,-4.2965,-4.3024,-4.3209,-4.326,-4.3306,-4.3342,-4.3287,-4.3513,-4.3535,-4.3554,-4.3626,-4.3654,-4.332,-4.332,-4.3319,-4.3319,0,-4.2329,-4.2445,-4.254,-4.2658,-4.2733,-4.286,-4.2896,-4.2969,-4.297,-4.3004,-4.3159,-4.3228,-4.3343,-4.3387,-4.3389,-4.3572,-4.3547,-4.3509,-4.3432,-4.3588,-4.3655,-4.3683,-4.3329,-4.3327,-4.3325,-4.3323,0,0,-4.2559,-4.2686,-4.272,-4.2773,-4.2875,-4.2964,-4.309,-4.3202,-4.3264,-4.3348,-4.3454,-4.3607,-4.3573,-4.3637,-4.3645,-4.373,-4.3892,-4.3682,-4.3684,-4.3718,-4.4098,-4.4126,-4.4157,-4.3879,-4.3884,-4.3888,-4.409,0,-4.2755,-4.2977,-4.2996,-4.3196,-4.3303,-4.3284,-4.3393,-4.3467,-4.3502,-4.3597,-4.3635,-4.3743,-4.369,-4.3728,-4.3811,-4.3854,-4.3968,-4.384,-4.3976,-4.3981,-4.3955,-4.4192,-4.4223,-4.441,-4.4116,-4.4121,-4.4124,0,-4.3013,-4.3106,-4.3316,-4.3402,-4.3448,-4.3546,-4.365,-4.3741,-4.3824,-4.3843,-4.3915,-4.3912,-4.404,-4.3958,-4.4134,-4.4047,-4.4103,-4.4133,-4.4141,-4.4154,-4.4062,-4.4212,-4.447,-4.4498,-4.4166,-4.4163,-4.416,0,-4.316,-4.3337,-4.3485,-4.3532,-4.3636,-4.3705,-4.3751,-4.3829,-4.3895,-4.3985,-4.4028,-4.4132,-4.419,-4.427,-4.4295,-4.4233,-4.447,-4.439,-4.4489,-4.4489,-4.454,-4.4537,-4.4811,-4.4577,-4.4576,-4.4576,-4.4575,0,-4.3377,-4.3506,-4.3553,-4.3644,-4.3788,-4.3808,-4.395,-4.3992,-4.4061,-4.416,-4.415,-4.4242,-4.427,-4.4367,-4.4387,-4.453,-4.4556,-4.4574,-4.4578,-4.4576,-4.4573,-4.4613,-4.4601,-4.4583,-4.4581,-4.458,-4.4579,0,-4.3565,-4.3602,-4.3762,-4.3848,-4.3872,-4.3974,-4.4047,-4.4135,-4.4167,-4.4292,-4.4323,-4.4374,-4.4488,-4.4521,-4.4657,-4.4671,-4.4838,-4.483,-4.4811,-4.4811,-4.4908,-4.4898,-4.5217,-4.526,-4.4998,-4.5,-4.5002,0,-4.3701,-4.38,-4.3896,-4.3962,-4.4011,-4.4117,-4.4185,-4.4208,-4.4278,-4.4379,-4.4455,-4.4567,-4.4659,-4.4841,-4.489,-4.4995,-4.4989,-4.5093,-4.5004,-4.4999,-4.499,-4.4984,-4.4994,-4.511,-4.5113,-4.5115,-4.5117,0,-4.3939,-4.3952,-4.405,-4.4155,-4.4235,-4.4319,-4.4399,-4.4453,-4.4487,-4.4566,-4.4683,-4.4754,-4.4894,-4.5005,-4.5111,-4.5157,-4.5144,-4.5145,-4.5173,-4.5171,-4.5156,-4.5166,-4.4857,-4.5137,-4.5135,-4.5134,-4.5133,-4.5132,-4.4105,-4.4192,-4.4273,-4.4383,-4.4445,-4.452,-4.4607,-4.465,-4.4748,-4.4864,-4.4871,-4.4998,-4.5077,-4.5217,-4.527,-4.5368,-4.5337,-4.5378,-4.5389,-4.5399,-4.5407,-4.514,-4.5387,-4.5387,-4.5386,-4.5386,-4.5385,0,-4.4342,-4.4393,-4.4494,-4.4606,-4.4692,-4.4671,-4.4759,-4.4832,-4.4943,-4.5018,-4.5109,-4.5242,-4.535,-4.5408,-4.5515,-4.5583,-4.5579,-4.561,-4.5606,-4.5617,-4.5428,-4.5393,-4.5612,-4.5612,-4.5612,-4.5612,-4.5612,-4.5611,-4.4476,-4.4622,-4.4645,-4.4821,-4.4871,-4.4995,-4.5047,-4.5116,-4.5176,-4.5326,-4.5416,-4.5453,-4.5521,-4.5633,-4.5731,-4.5745,-4.5785,-4.582,-4.583,-4.5653,-4.563,-4.5608,-4.5575,-4.5828,-4.5829,-4.601,-4.6012,-4.6013]}]]